sat.trackr.live / text

‹ back to catalog

STARLINK-33643

NORAD 63381 · 2025-063U

PAYLOAD ACTIVE UNKNOWN

§ Identity

Operator
Country
US
Launch date
2025-03-26
Launch site
AFWTR
Launch vehicle
Mass (kg)
RCS (m²)

Purposes: comms

External: N2YO · Heavens-Above · Gunter

§ Orbital elements

Epoch: 2026-05-25T04:40:34.359168Z

Period
94.10 min
Inclination
53.1589°
Eccentricity
0.0001156
Mean motion
15.30209805 rev/d
Perigee alt
474.4 km
Apogee alt
476.0 km
Semi-major
6,853.3 km
B*
6.0050e-4
RAAN
57.0369°
Arg perigee
100.9881°
Mean anomaly
259.1250°
Rev number
6,647

§ Raw data

STARLINK-336431 63381U 25063U   26145.19484212  .00017473  00000+0  60050-3 0  99912 63381  53.1589  57.0369 0001156 100.9881 259.1250 15.30209805 66474

JSON: /api/v1/satellites/63381 · /tle

For live sub-satellite position, see the globe view (requires WebGL).

§ Visibility from observer

Set your observer location to see the next 7 days of passes ≥ 10°. The values pass through the URL so the page stays shareable.

No JS? Fill the form by hand. The geolocation button needs JavaScript.